Home > Weather > Bucharest > Past weeks

Flag for Romania Past Weather in Bucharest, Romania — Yesterday and Last 2 Weeks

Now
77 °F

Passing clouds.


Feels Like: 78 °F
Forecast: 62 / 81 °F
Wind: 13 mph from Northeast

Location: Bucharest / Imh

Current Time: Aug 26, 2016 at 1:37:17 PM

Latest Report: Aug 26, 2016 at 1:00 PM


Visibility: N/A

Pressure: 30.18 "Hg

Humidity: 42%

Dew Point: 52 °F

Location of BucharestLocation

Past Weather in Bucharest — Graph

°F

Bucharest Temperature Yesterday

Maximum temperature yesterday: 82 °F (at 3:30 PM)
Minimum temperature yesterday: 68 °F (at 3:00 AM)
Average temperature yesterday: 73 °F

High & Low Weather Summary for the Past Weeks

 TemperatureHumidityPressure
High93 °F (Aug 11, 3:30 PM)100% (Aug 12, 4:30 AM)30.27 "Hg (Aug 12, 4:30 AM)
Low55 °F (Aug 13, 4:30 AM)28% (Aug 14, 4:30 PM)29.80 "Hg (Aug 17, 5:30 PM)
Average72 °F69%30.04 "Hg
* Reported Aug 11 12:00 PM — Aug 26 12:00 PM, Bucharest, Weather by CustomWeather, © 2016

Note: Actual official high and low records may vary slightly from our data, if they occured in-between our weather recording intervals... More about our weather records

Advertising

Bucharest Weather History for the Previous 24 Hours

Scroll right to see more
 ConditionsComfort  
Time TempWeatherWind HumidityBarometerVisibility
12:00 PM
Fri, Aug 26
75 °FScattered clouds.14 mph44%30.18 "HgN/A
11:30 AM75 °FScattered clouds.10 mph50%30.21 "HgN/A
11:00 AM75 °FPassing clouds.12 mph47%30.21 "HgN/A
10:30 AM73 °FPassing clouds.10 mph53%30.21 "HgN/A
10:00 AM73 °FPassing clouds.9 mph50%30.21 "HgN/A
9:30 AM72 °FPassing clouds.8 mph57%30.21 "HgN/A
9:00 AM70 °FPassing clouds.8 mph60%30.18 "HgN/A
8:30 AM68 °FPassing clouds.8 mph60%30.18 "HgN/A
8:00 AM66 °FPassing clouds.7 mph64%30.18 "HgN/A
7:30 AM64 °FPassing clouds.7 mph68%30.18 "HgN/A
7:00 AM61 °FPassing clouds.3 mph77%30.18 "HgN/A
6:30 AM59 °FPassing clouds.3 mph82%30.18 "HgN/A
6:00 AM59 °FClear.2 mph82%30.15 "Hg10 mi
5:30 AM59 °FClear.2 mph82%30.15 "Hg10 mi
5:00 AM59 °FClear.2 mph82%30.15 "Hg10 mi
4:30 AM61 °FClear.1 mph77%30.15 "Hg10 mi
4:00 AM63 °FPassing clouds.6 mph73%30.15 "HgN/A
3:30 AM63 °FPassing clouds.6 mph73%30.15 "HgN/A
3:00 AM63 °FPassing clouds.5 mph73%30.15 "HgN/A
2:30 AM63 °FClear.3 mph77%30.15 "Hg10 mi
2:00 AM64 °FPassing clouds.5 mph73%30.15 "HgN/A
1:30 AM64 °FPassing clouds.5 mph73%30.15 "HgN/A
1:00 AM66 °FClear.5 mph64%30.15 "Hg10 mi
12:30 AM66 °FClear.3 mph64%30.15 "Hg10 mi
12:00 AM68 °FPassing clouds.6 mph60%30.15 "HgN/A
11:30 PM
Thu, Aug 25
68 °FPassing clouds.5 mph60%30.15 "HgN/A
11:00 PM68 °FClear.3 mph60%30.15 "Hg10 mi
10:30 PM70 °FClear.3 mph57%30.15 "Hg10 mi
10:00 PM70 °FClear.5 mph57%30.15 "Hg10 mi
9:30 PM70 °FClear.2 mph57%30.15 "Hg10 mi
9:00 PM70 °FSunny.3 mph60%30.12 "Hg10 mi
8:30 PM72 °FSunny.2 mph50%30.12 "Hg10 mi
8:00 PM73 °FSunny.6 mph50%30.12 "Hg10 mi
7:30 PM75 °FSunny.7 mph44%30.09 "Hg10 mi
7:00 PM77 °FPassing clouds.9 mph42%30.09 "HgN/A
6:30 PM79 °FPassing clouds.8 mph39%30.09 "HgN/A
6:00 PM79 °FSunny.8 mph42%30.09 "Hg10 mi
5:30 PM81 °FPassing clouds.8 mph39%30.09 "HgN/A
5:00 PM81 °FPassing clouds.8 mph39%30.09 "HgN/A
4:30 PM81 °FPassing clouds.10 mph39%30.09 "HgN/A
4:00 PM79 °FPassing clouds.6 mph42%30.09 "HgN/A
3:30 PM82 °FPassing clouds.10 mph42%30.09 "HgN/A
3:00 PM81 °FPassing clouds.10 mph39%30.09 "HgN/A
2:30 PM81 °FPassing clouds.8 mph39%30.12 "HgN/A
2:00 PM81 °FPassing clouds.8 mph42%30.12 "HgN/A
1:30 PM79 °FSunny.7 mph48%30.12 "Hg10 mi
1:00 PM79 °FPassing clouds.12 mph48%30.12 "HgN/A
Weather by CustomWeather, © 2016

See weather overviewHow to use our weather pages